Troy, MI

4:38 PM EDT on June 22, 2018 (GMT -0400)
Troy

Weather History for KVLL - March, 2018

Change the Weather History Date:

Wednesday, March 14, 2018

  Actual Average (KDET) Record (KDET)
Temperature  
Mean Temperature 30 °F -  
Max Temperature 39 °F 44 °F 75 °F (1990)
Min Temperature 22 °F 29 °F 9 °F (1993)
Degree Days  
Heating Degree Days 34    
Moisture  
Dew Point 15 °F    
Average Humidity 55    
Maximum Humidity 79    
Minimum Humidity 33    
Precipitation  
Precipitation 0.00 in - - ()
Sea Level Pressure  
Sea Level Pressure 29.92 in    
Wind  
Wind Speed 10 mph (West)    
Max Wind Speed 18 mph    
Max Gust Speed 28 mph    
Visibility 10 miles    
Events Snow    
Averages and records for this station are not official NWS values.
T = Trace of Precipitation, MM = Missing Value Source: NWS Daily Summary

Daily Weather History Graph

Daily Weather History Graph

Search for Another Location

Airport or City:

Astronomy

Mar. 14, 2018 Rise Set
Actual Time 7:46 AM EDT 7:38 PM EDT
Civil Twilight 7:18 AM EDT 8:06 PM EDT
Nautical Twilight 6:45 AM EDT 8:38 PM EDT
Astronomical Twilight 6:12 AM EDT 9:12 PM EDT
Moon 6:26 AM EDT (3/14) 4:50 PM EDT (3/14)
Length of Visible Light 12h 47m
Length of Day
11h 51m
Waning Crescent, 8% of the Moon is Illuminated
Mar 14
Waning Crescent
Mar 17
New
Mar 24
First Quarter
Mar 31
Full
Apr 8
Last Quarter

Hourly Weather History & Observations

Time (EDT) Temp. Windchill Dew Point Humidity Pressure Visibility Wind Dir Wind Speed Gust Speed Precip Events Conditions
12:15 AM 27.9 °F 19.1 °F 22.1 °F 79% 30.02 in 10.0 mi NW 9.2 mph - N/A   Mostly Cloudy
12:36 AM 27.5 °F 18.0 °F 20.3 °F 74% 30.02 in 10.0 mi WNW 10.4 mph 16.1 mph N/A   Mostly Cloudy
12:55 AM 27.9 °F 19.1 °F 19.6 °F 71% 30.02 in 10.0 mi NW 9.2 mph - N/A Snow Light Snow
1:15 AM 27.3 °F 17.1 °F 19.8 °F 73% 30.01 in 10.0 mi NW 11.5 mph 18.4 mph N/A   Mostly Cloudy
1:35 AM 26.6 °F 17.5 °F 20.1 °F 77% 30.01 in 10.0 mi WNW 9.2 mph 16.1 mph N/A Snow Light Snow
1:55 AM 26.6 °F 19.1 °F 20.3 °F 77% 30.01 in 10.0 mi NW 6.9 mph 17.3 mph N/A Snow Light Snow
2:15 AM 26.4 °F 18.0 °F 19.9 °F 77% 30.01 in 10.0 mi NW 8.1 mph - N/A Snow Light Snow
2:35 AM 26.4 °F 18.0 °F 18.1 °F 71% 30.01 in 10.0 mi NW 8.1 mph 20.7 mph N/A   Scattered Clouds
2:55 AM 26.2 °F 16.4 °F 16.5 °F 67% 30.00 in 10.0 mi NW 10.4 mph 16.1 mph N/A   Scattered Clouds
3:15 AM 25.7 °F 14.6 °F 15.3 °F 65% 30.00 in 10.0 mi NW 12.7 mph 20.7 mph N/A   Clear
3:35 AM 25.3 °F 14.1 °F 14.9 °F 65% 30.00 in 10.0 mi NW 12.7 mph 20.7 mph N/A   Clear
3:55 AM 24.6 °F 12.2 °F 14.5 °F 66% 30.00 in 10.0 mi WNW 15.0 mph - N/A   Clear
4:15 AM 24.3 °F 12.7 °F 14.0 °F 65% 30.00 in 10.0 mi NW 12.7 mph 20.7 mph N/A   Clear
4:35 AM 23.9 °F 12.3 °F 13.8 °F 65% 29.99 in 10.0 mi NW 12.7 mph 17.3 mph N/A   Clear
4:55 AM 23.5 °F 14.5 °F 14.0 °F 67% 29.99 in 10.0 mi WNW 8.1 mph - N/A   Clear
5:16 AM 23.0 °F 14.7 °F 14.0 °F 68% 29.99 in 10.0 mi WNW 6.9 mph - N/A   Clear
5:35 AM 23.0 °F 13.9 °F 14.0 °F 68% 29.99 in 10.0 mi WNW 8.1 mph - N/A   Clear
5:55 AM 22.8 °F 12.9 °F 14.0 °F 69% 29.99 in 10.0 mi NW 9.2 mph - N/A   Clear
6:15 AM 23.0 °F 13.9 °F 14.0 °F 68% 29.99 in 10.0 mi WNW 8.1 mph 17.3 mph N/A   Clear
6:35 AM 22.8 °F 13.6 °F 14.0 °F 69% 29.99 in 10.0 mi WNW 8.1 mph - N/A   Clear
6:55 AM 23.0 °F 12.4 °F 14.0 °F 68% 29.99 in 10.0 mi WNW 10.4 mph 17.3 mph N/A   Clear
7:15 AM 23.0 °F 12.4 °F 14.0 °F 68% 29.99 in 10.0 mi WNW 10.4 mph - N/A   Clear
7:35 AM 23.0 °F 12.4 °F 14.2 °F 69% 29.99 in 10.0 mi WNW 10.4 mph 17.3 mph N/A   Clear
7:55 AM 23.0 °F 11.7 °F 14.5 °F 70% 29.99 in 10.0 mi WNW 11.5 mph 17.3 mph N/A   Clear
8:15 AM 23.4 °F 11.1 °F 14.9 °F 70% 29.99 in 10.0 mi WNW 13.8 mph 20.7 mph N/A   Clear
8:35 AM 23.9 °F 11.7 °F 15.4 °F 70% 29.99 in 10.0 mi WNW 13.8 mph 17.3 mph N/A   Scattered Clouds
8:55 AM 24.4 °F 13.5 °F 16.3 °F 71% 29.99 in 10.0 mi WNW 11.5 mph 17.3 mph N/A   Mostly Cloudy
9:15 AM 24.8 °F 12.9 °F 16.5 °F 71% 29.99 in 10.0 mi WNW 13.8 mph 20.7 mph N/A   Scattered Clouds
9:35 AM 25.7 °F 15.7 °F 16.7 °F 69% 29.98 in 10.0 mi WNW 10.4 mph 16.1 mph N/A   Clear
9:55 AM 26.1 °F 12.7 °F 17.1 °F 69% 29.98 in 10.0 mi WNW 18.4 mph 25.3 mph N/A   Scattered Clouds
10:15 AM 26.6 °F 17.5 °F 17.2 °F 68% 29.98 in 10.0 mi WNW 9.2 mph 20.7 mph N/A   Mostly Cloudy
10:35 AM 27.5 °F 15.4 °F 17.4 °F 66% 29.98 in 10.0 mi West 16.1 mph 20.7 mph N/A   Mostly Cloudy
10:55 AM 27.5 °F 16.3 °F 16.9 °F 64% 29.98 in 10.0 mi West 13.8 mph 23.0 mph N/A   Overcast
11:15 AM 27.5 °F 16.3 °F 16.9 °F 64% 29.98 in 10.0 mi WNW 13.8 mph 23.0 mph N/A   Overcast
11:35 AM 28.0 °F 16.5 °F 16.9 °F 63% 29.98 in 10.0 mi West 15.0 mph 21.9 mph N/A   Overcast
11:55 AM 28.6 °F 17.7 °F 16.9 °F 62% 29.97 in 10.0 mi WNW 13.8 mph 18.4 mph N/A   Mostly Cloudy
12:16 PM 29.3 °F 18.2 °F 16.2 °F 58% 29.96 in 10.0 mi WNW 15.0 mph 27.6 mph N/A   Mostly Cloudy
12:35 PM 29.8 °F 18.9 °F 16.2 °F 57% 29.96 in 10.0 mi West 15.0 mph 21.9 mph N/A   Scattered Clouds
12:55 PM 30.7 °F 19.6 °F 15.6 °F 54% 29.95 in 10.0 mi NW 16.1 mph 19.6 mph N/A   Clear
1:35 PM 32.0 °F 21.2 °F 14.9 °F 49% 29.93 in 10.0 mi West 16.1 mph - N/A   Clear
1:55 PM 32.5 °F 22.7 °F 14.2 °F 47% 29.91 in 10.0 mi West 13.8 mph 19.6 mph N/A   Clear
2:15 PM 33.6 °F 24.1 °F 14.4 °F 45% 29.90 in 10.0 mi WSW 13.8 mph 23.0 mph N/A   Clear
2:35 PM 34.7 °F 25.1 °F 14.5 °F 44% 29.89 in 10.0 mi West 15.0 mph 24.2 mph N/A   Clear
2:55 PM 35.2 °F 24.7 °F 14.5 °F 43% 29.88 in 10.0 mi West 18.4 mph 24.2 mph N/A   Clear
3:15 PM 36.9 °F 30.1 °F 14.4 °F 40% 29.87 in 10.0 mi West 9.2 mph 17.3 mph N/A   Clear
3:35 PM 36.9 °F 29.1 °F 14.5 °F 40% 29.86 in 10.0 mi WNW 11.5 mph 20.7 mph N/A   Clear
3:55 PM 37.6 °F 29.6 °F 12.4 °F 36% 29.86 in 10.0 mi WSW 12.7 mph 24.2 mph N/A   Scattered Clouds
4:15 PM 37.2 °F 29.6 °F 12.6 °F 36% 29.85 in 10.0 mi West 11.5 mph 19.6 mph N/A   Mostly Cloudy
4:35 PM 38.5 °F 31.1 °F 13.1 °F 35% 29.84 in 10.0 mi West 11.5 mph 20.7 mph N/A   Overcast
4:55 PM 37.9 °F 30.5 °F 12.9 °F 36% 29.83 in 10.0 mi West 11.5 mph 19.6 mph N/A   Scattered Clouds
5:15 PM 37.6 °F 29.6 °F 13.8 °F 38% 29.82 in 10.0 mi West 12.7 mph 21.9 mph N/A   Mostly Cloudy
5:36 PM 39.0 °F 30.3 °F 13.5 °F 35% 29.82 in 10.0 mi West 16.1 mph 21.9 mph N/A   Mostly Cloudy
5:55 PM 39.2 °F 33.6 °F 12.7 °F 34% 29.82 in 10.0 mi West 8.1 mph - N/A   Scattered Clouds
6:15 PM 39.6 °F 31.7 °F 12.7 °F 33% 29.81 in 10.0 mi West 13.8 mph 18.4 mph N/A   Scattered Clouds
6:35 PM 39.2 °F 32.5 °F 13.1 °F 34% 29.81 in 10.0 mi WSW 10.4 mph 17.3 mph N/A   Scattered Clouds
6:55 PM 38.7 °F 31.8 °F 12.6 °F 34% 29.81 in 10.0 mi WSW 10.4 mph - N/A   Clear
7:15 PM 38.3 °F 32.5 °F 12.2 °F 34% 29.81 in 10.0 mi West 8.1 mph - N/A   Scattered Clouds
7:35 PM 37.6 °F 33.1 °F 12.4 °F 36% 29.81 in 10.0 mi West 5.8 mph 9.2 mph N/A   Scattered Clouds
7:55 PM 37.0 °F 33.3 °F 13.6 °F 38% 29.82 in 10.0 mi WSW 4.6 mph - N/A   Mostly Cloudy
8:15 PM 36.9 °F 33.1 °F 14.0 °F 39% 29.82 in 10.0 mi WSW 4.6 mph - N/A   Overcast
8:35 PM 36.7 °F 32.0 °F 14.7 °F 41% 29.82 in 10.0 mi WSW 5.8 mph - N/A   Mostly Cloudy
8:55 PM 36.9 °F 32.2 °F 14.7 °F 40% 29.82 in 10.0 mi WSW 5.8 mph - N/A   Mostly Cloudy
9:15 PM 36.5 °F 31.0 °F 15.1 °F 42% 29.82 in 10.0 mi WSW 6.9 mph - N/A   Scattered Clouds
9:35 PM 35.4 °F 31.5 °F 15.4 °F 44% 29.82 in 10.0 mi SW 4.6 mph - N/A   Scattered Clouds
9:55 PM 34.7 °F 30.6 °F 15.3 °F 45% 29.82 in 10.0 mi SW 4.6 mph - N/A   Clear
10:15 PM 34.7 °F 29.6 °F 15.4 °F 45% 29.81 in 10.0 mi SSW 5.8 mph - N/A   Mostly Cloudy
10:35 PM 34.9 °F 29.0 °F 15.3 °F 45% 29.80 in 10.0 mi SW 6.9 mph - N/A   Overcast
10:55 PM 35.1 °F 30.1 °F 15.4 °F 45% 29.79 in 10.0 mi SW 5.8 mph - N/A   Overcast
11:15 PM 35.1 °F 29.3 °F 15.8 °F 45% 29.78 in 10.0 mi SSW 6.9 mph - N/A   Overcast
11:35 PM 35.2 °F 29.5 °F 15.6 °F 45% 29.77 in 10.0 mi SSW 6.9 mph - N/A   Overcast
11:55 PM 35.6 °F 31.7 °F 15.3 °F 43% 29.76 in 10.0 mi SSW 4.6 mph - N/A   Overcast